Regional Weather Roundup
Issued by NWS Newport/Morehead, NC

Current Version | Previous Version | Graphics & Text | Print | Product List | Glossary On
Versions: 1 2 3 4 5 6 7 8 9 10 11 12 13 14 15 16 17 18 19 20 21 22 23 24 25 26 27 28 29 30 31 32 33 34 35 36 37 38 39 40 41 42 43 44 45 46 47 48 49 50
970 ASUS42 KMHX 230725 RWRMHX WEATHER ROUNDUP FOR EASTERN NORTH CAROLINA NATIONAL WEATHER SERVICE NEWPORT/MOREHEAD CITY NC 200 AM EST THU FEB 23 2017 NOTE: "FAIR" INDICATES FEW OR NO CLOUDS BELOW 12,000 FEET WITH NO SIGNIFICANT WEATHER AND/OR OBSTRUCTIONS TO VISIBILITY NCZ015>017-031-032-045>047-102-103-230800- NORTH COAST CITY SKY/WX TMP DP RH WIND PRES REMARKS EDENTON CLOUDY 55 52 89 CALM 29.95S ELIZABETH CITY CLOUDY 54 51 90 SE3 29.94F KITTY HAWK NOT AVBL MANTEO CLOUDY 57 53 88 CALM 29.95S $$ NCZ045>047-081-094-103-104-230800- CENTRAL COAST CITY SKY/WX TMP DP RH WIND PRES REMARKS FRISCO LGT RAIN 62 58 86 W3 29.93F FOG $$ NCZ095-097-098-100-101-230800- SOUTHERN COAST CITY SKY/WX TMP DP RH WIND PRES REMARKS BEAUFORT CLEAR 54 52 93 CALM 29.92F CEDAR ISLAND NOT AVBL JACKSONVILLE MOCLDY 53 53 100 N3 29.91F PINEY ISLAND MOSUNNY N/A N/A N/A NE5 29.92F WILMINGTON PTCLDY 55 53 93 CALM 29.90F $$ NCZ011>013-027>030-043-044-078>080-089-090>093-098-230800- COASTAL PLAIN CITY SKY/WX TMP DP RH WIND PRES REMARKS AHOSKIE N/A 53 51 93 CALM 29.94S CLINTON PTCLDY 53 52 99 CALM 29.92F ELIZABETHTOWN PTCLDY 53 53 99 CALM 29.91S GOLDSBORO CLOUDY 53 53 100 CALM 29.91S GREENVILLE PTCLDY 54 52 94 CALM 29.95F HAVELOCK NOT AVBL KENANSVILLE NOT AVBL KINSTON PTCLDY 52 50 95 CALM 29.94S NEW BERN PTCLDY 50 50 100 CALM 29.94S FOG RICHLANDS CLOUDY 51 50 96 CALM 29.93S ROCKY MOUNT CLOUDY 53 52 96 CALM 29.93F WASHINGTON PTCLDY 52 50 94 CALM 29.94S WHITEVILLE PTCLDY 55 52 90 CALM 29.90S $$ AMZ130-135-150-152-154-156-158-170-250-252-270-ANZ085-086-088-633-658-670-230800- MARINE OBSERVATIONS STATION/POSITION TIME TEMP WIND PRES WAVE SWELL AIR SEA DIR/SP/G HT/PER HT/PER (UTC) (F) (DEG/KT/KT) (MB) (FT/S) (FT/S) CHESAPEAKE LIGHT NOT AVBL 64 E VA BEACH 0650 58 54 160/ 6/ 6 1013.8 3/10 3/10 DUCK 0700 56 48 190/ 3/ 5 1013.3 2 E DUCK 0700 50 N/A 3/10 2/11 OREGON INLET 0700 55 54 140/ 3/ 5 1013.8 13E OREGON INLT NOT AVBL HATTERAS CG 0700 62 61 80/ 3/ 4 1013.3 DIAMOND BUOY 0650 68 73 180/ 16/ 17 1013.7 4/10 2/10 CAPE LOOKOUT 0700 64 150/ 7/ 7 1012.8 BEAUFORT LAB 0700 57 54 10/ 3/ 3 1012.2 30 SE NEW RVR IN 0708 68 130/ 14/ 17 1012.6 30 SE NEW RVR IN 0643 69 N/A 4/ 5 2/11 27 SE WRIGHTSVLE 0708 67 65 130/ 8/ 10 1011.4 5 SE WRIGHTSVLE 0708 60 58 70/ 6/ 10 1012.3 225 S CAPE HAT 0650 67 70 110/ 21/ 25 1011.8 6/11 3/11 41 SE CHARLESTON 0650 70 69 110/ 16/ 17 1009.4 6/ 7 3/10 $$

USA.gov is the U.S. government's official web portal to all federal, state and local government web resources and services.